Weather Service Report


999 
ASUS43 KIND 231909
RWRIN 

WEATHER ROUNDUP FOR INDIANA
NATIONAL WEATHER SERVICE INDIANAPOLIS IN
200 PM EST SUN NOV 23 2014

NOTE: "FAIR" INDICATES FEW OR NO CLOUDS BELOW 12,000 FEET WITH NO
SIGNIFICANT WEATHER AND/OR OBSTRUCTIONS TO VISIBILITY.

* - STATION DOES NOT REPORT WEATHER SUCH AS PRECIPITATION OR FOG.

+ - STATION NOT QUALITY CONTROLLED BY THE NATIONAL WEATHER SERVICE.
    USE DATA WITH CAUTION...ESPECIALLY DEWPOINT AND RELATIVE
    HUMIDITY OBSERVATIONS.

INZ001>003-010>013-019-020-232000-
NORTHWEST INDIANA
  
CITY           SKY/WX    TMP DP  RH WIND       PRES   REMARKS
GARY /AIRPORT/ CLOUDY    52  46  82 SE8       29.61F                  
KNOX *+        CLOUDY    53  45  76 SE12      29.62F                  
LA PORTE +     CLOUDY    54  48  81 S7        29.64F                  
MICHIGAN CITY+ CLOUDY    52  43  71 S3        29.62F                  
MONTICELLO +   RAIN      53  49  87 S8        29.63F                  
RENSSELAER +   CLOUDY    54  50  87 SE9       29.61F                  
VALPARAISO     LGT RAIN  52  46  80 SE7       29.62F                  

$$

LMZ046-743>745-232000-
SOUTHERN LAKE MICHIGAN
  
STATION/POSITION TIME  TEMP WIND        PRES
                       AIR  DIR/SP/G
                 (UTC) (F)  (DEG/KT/KT) (MB)
MICHIGAN CITY    1900   52  130/ 14/ 18   N/A

$$

INZ004-005-014>016-021>024-232000-
NORTH CENTRAL INDIANA
  
CITY           SKY/WX    TMP DP  RH WIND       PRES   REMARKS
GOSHEN         CLOUDY    55  46  71 SE7       29.67F                  
LOGANSPORT +   RAIN      50  48  93 S12       29.66F                  
PERU/GRISSOM   CLOUDY    52  52 100 S8        29.64F                  
ROCHESTER +    LGT RAIN  54  48  82 SE7       29.65F                  
SOUTH BEND     CLOUDY    54  46  74 S9        29.67F                  
WARSAW +       LGT RAIN  54  48  82 SE3       29.67F                  

$$

INZ006>009-017-018-025>027-232000-
NORTHEAST INDIANA
  
CITY           SKY/WX    TMP DP  RH WIND       PRES   REMARKS
ANGOLA *+      MOSUNNY   54  43  66 S7        29.70F                  
AUBURN +       CLOUDY    54  45  71 E5        29.71F                  
FORT WAYNE     CLOUDY    56  50  80 SE9       29.70F                  
HUNTINGTON +   RAIN      55  50  84 S9        29.68F                  

$$

INZ028-029-035-036-043>045-051>053-232000-
WEST CENTRAL INDIANA
  
CITY           SKY/WX    TMP DP  RH WIND       PRES   REMARKS
GREENCASTLE +  LGT RAIN  50  50 100 SE7       29.63F                  
LAFAYETTE      CLOUDY    51  50  96 S12       29.62F                  
TERRE HAUTE    LGT RAIN  52  50  93 SE10      29.60F FOG              

$$

INZ030>032-037>040-046>048-054>057-064-065-232000-
CENTRAL INDIANA
  
CITY           SKY/WX    TMP DP  RH WIND       PRES   REMARKS
CP ATTERBURY + LGT RAIN  52  50  93 SE6       29.66F                  
COLUMBUS       LGT RAIN  54  52  94 SE9       29.67F                  
FRANKFORT +    LGT RAIN N/A N/A N/A SE12      29.66F                  
GREENWOOD *+   CLOUDY    52  48  87 SE7       29.65F                  
INDIANAPOLIS   LGT RAIN  51  49  92 SE10      29.64F FOG              
-EAGLE CREEK   LGT RAIN  51  49  92 SE7       29.65F                  
KOKOMO *+      CLOUDY    52  48  87 S9        29.66F                  
MARION +       CLOUDY    53  49  85 SE9       29.67F                  
MT COMFORT *+  CLOUDY    54  50  87 SE10      29.67F                  
SHELBYVILLE    LGT RAIN  55  50  83 SE14      29.66F                  
ZIONSVILLE +   DRIZZLE   51  47  87 SE8       29.66F                  

$$

INZ033-034-041-042-049-050-058-059-232000-
EAST CENTRAL INDIANA
  
CITY           SKY/WX    TMP DP  RH WIND       PRES   REMARKS
MUNCIE         LGT RAIN  57  49  74 S14G20    29.68F                  

$$

INZ060-061-067>069-081>083-085>088-232000-
SOUTHWEST INDIANA
  
CITY           SKY/WX    TMP DP  RH WIND       PRES   REMARKS
EVANSVILLE     CLOUDY    54  51  90 SE5       29.58F                  
HUNTINGBURG *+ CLOUDY    54  50  87 SE10      29.60F                  
WASHINGTON +   RAIN      52  52 100 SE8       29.59F                  

$$

INZ062-063-066-070>080-084-089>092-232000-
SOUTH CENTRAL AND SOUTHEAST INDIANA
  
CITY           SKY/WX    TMP DP  RH WIND       PRES   REMARKS
BLOOMINGTON    LGT RAIN  53  51  93 SE12      29.62F FOG              
NORTH VERNON + CLOUDY    57  48  72 SE13G22   29.69                   

$$


Return to Home page


Western Regional Climate Center, wrcc@dri.edu